Location: Beuerbach
(48.1459°N, 10.9174°E)
Time: 02:20:26
(UTC+00:00)

Cosmos 1455 - Pass Details

Date: 17 August 2024
Orbit: 431 x 444 km, 82.5° (Epoch: 11 September)

Event Time Altitude Azimuth Distance (km) Brightness Sun altitude
Exits shadow 01:28:26 15° 117° (ESE) 1,318 4.3 -22.3°
Maximum altitude 01:29:47 18° 88° (E) 1,177 4.4 -22.2°
Drops below altitude 10° 01:32:08 10° 44° (NE) 1,568 5.8 -21.9°
Sets 01:34:39 0° 25° (NNE) 2,439 7.1 -21.7°
